User: anonymous   Login
Location: Stigler
(35.2540°N, 95.1230°W)
Time: 06:49:13
(UTC-05:00)
Language:

Cosmos 1805 - Orbit

View from above orbital plane
View from above orbital plane
View from above satellite
View from above satellite

Ground track
Ground track

The orbit data is extracted from the following two-line orbital elements,

1 17191U 86097A   14303.95024930  .00006481  00000-0  41703-3 0   260
2 17191 082.5025 253.1140 0009735 118.3309 241.8903 15.08187347518687
Epoch (UTC): 30 October 2014 22:48:21
Eccentricity: 0.0009735
inclination: 82.5025°
perigee height: 535 km
apogee height: 548 km
right ascension of ascending node: 253.1140°
argument of perigee: 118.3309°
revolutions per day: 15.08187347
mean anomaly at epoch: 241.8903°
orbit number at epoch: 51868

The dashed part of the orbit path shows where the satellite is in the earth's shadow,  

DLR